Regional Weather Roundup
Issued by NWS

Home | Current Version | Previous Version | Graphics & Text | Print | Product List | Glossary On
Versions: 1 2 3 4 5 6 7 8 9 10 11 12 13 14 15 16 17 18 19 20 21 22 23 24 25 26 27 28 29 30 31 32 33 34 35 36 37 38 39 40 41 42 43 44 45 46 47 48 49 50
000
ASUS43 KOAX 042010
RWRNE

WEATHER ROUNDUP FOR NEBRASKA
NATIONAL WEATHER SERVICE OMAHA NE
300 PM CDT SAT JUL 04 2015

NOTES: SATELLITE DATA IS BEING USED TO AUGMENT CLOUD COVER ABOVE
       12000 FEET.
       "FAIR" INDICATES FEW OR NO CLOUDS BELOW 12,000 FEET WITH NO
       SIGNIFICANT WEATHER AND/OR OBSTRUCTIONS TO VISIBILITY.

  * THESE STATIONS DO NOT REPORT WEATHER SUCH AS RAIN...SNOW OR FOG.

NEZ001>004-019>022-054>056-042100-
NEBRASKA PANHANDLE

CITY           SKY/WX    TMP DP  RH WIND       PRES   REMARKS
SCOTTSBLUFF    SUNNY     93  58  30 E9        29.88F HX  92
ALLIANCE       SUNNY     89  63  41 S14G22    29.90F HX  90
CHADRON        SUNNY     91  65  41 SE6       29.84F HX  93
KIMBALL          N/A    N/A N/A N/A MISG        N/A
SIDNEY         SUNNY     91  58  32 S15G24    29.94F HX  90
$$

NEZ057>060-069>072-079>082-042100-
SOUTHWEST NEBRASKA

CITY           SKY/WX    TMP DP  RH WIND       PRES   REMARKS
NORTH PLATTE   MOSUNNY   89  64  43 S15G24    29.91F HX  90
IMPERIAL       SUNNY     94  58  29 S17G25    29.90F HX  93
LEXINGTON      MOSUNNY   87  65  48 S16G22    29.94F
MCCOOK         MOSUNNY   94  59  31 S18G24    29.90F HX  93
OGALLALA       SUNNY     90  63  40 S12G25    29.90F HX  90
$$

NEZ005>010-023>029-035>040-094-042100-
NORTH CENTRAL NEBRASKA

CITY           SKY/WX    TMP DP  RH WIND       PRES   REMARKS
VALENTINE      SUNNY     89  64  43 S16       29.86F HX  90
AINSWORTH      SUNNY     88  64  45 S17       29.89F
BROKEN BOW     MOSUNNY   85  66  53 S17G26    29.94S
O`NEILL        MOSUNNY   85  65  50 S12G20    29.92F
ORD            SUNNY     86  64  47 S12G24    29.92F
THEDFORD       SUNNY     88  65  47 S20G26    29.92S
$$

NEZ041-046>049-061>064-073>077-083>087-042100-
SOUTH CENTRAL NEBRASKA

CITY           SKY/WX    TMP DP  RH WIND       PRES   REMARKS
GRAND ISLAND   MOSUNNY   83  66  56 S13       29.96F
AURORA         MOSUNNY   81  64  56 S14G21    29.97S
HASTINGS       MOSUNNY   83  64  52 S10G21    29.96F
HEBRON         MOSUNNY   82  60  47 S8        29.97F
HOLDREGE       SUNNY     85  62  46 S15G24    29.95F
KEARNEY *      SUNNY     84  66  54 S16G22    29.95F
YORK           MOSUNNY   77  66  69 S12       29.97F
$$

NEZ011>018-030>034-042>045-042100-
NORTHEAST NEBRASKA

CITY           SKY/WX    TMP DP  RH WIND       PRES   REMARKS
NORFOLK        PTSUNNY   80  65  59 S14       29.95F
ALBION         MOSUNNY   82  62  50 S17       29.95F
BLAIR          PTSUNNY   81  60  49 S14       29.98S
COLUMBUS *     PTSUNNY   79  63  57 S9        29.98S
FREMONT        PTSUNNY   81  62  52 S10       29.98S
TEKAMAH        PTSUNNY   83  63  50 S10G16    29.96S
WAYNE          CLOUDY    79  66  64 S10       29.96F
$$

NEZ050>053-065>068-078-088>093-042100-
SOUTHEAST NEBRASKA

CITY           SKY/WX    TMP DP  RH WIND       PRES   REMARKS
LINCOLN        PTSUNNY   81  65  58 S10       29.97F
OMAHA EPPLEY   PTSUNNY   82  59  45 S10G18    29.97F
BEATRICE       PTSUNNY   81  63  54 S6G16     29.97F
FALLS CITY     PTSUNNY   82  60  47 S10       29.98F
NEBRASKA CITY  PTSUNNY   80  54  41 S9G17     29.99S
PLATTSMOUTH    PTSUNNY   80  58  47 SE9       29.98F
$$

NEZ044-045-051>053-067-042100-
OMAHA AREA

CITY           SKY/WX    TMP DP  RH WIND       PRES   REMARKS
OMAHA EPPLEY   PTSUNNY   82  59  45 S10G18    29.97F
BLAIR          PTSUNNY   81  60  49 S14       29.98S
FREMONT        PTSUNNY   81  62  52 S10       29.98S
MILLARD        PTSUNNY   79  63  57 S7        29.97F
OFFUTT AFB     PTSUNNY   80  62  54 S9        29.97F
PLATTSMOUTH    PTSUNNY   80  58  47 SE9       29.98F
WAHOO          FAIR      80  63  56 S12       29.97F
$$


USA.gov is the U.S. government's official web portal to all federal, state and local government web resources and services.